#timestamp,LO_Frequency,Hit 
1504479615.9,286047001.5,N
1504479635.7,286047002.0,N
1504479655.5,286047002.5,N
1504479675.4,286047002.4,N
1504479695.2,286046996.6,N
1504479715.0,286046996.9,N
1504479715.9,286046996.9,N
1504479735.8,286046997.5,N
1504479755.6,286046997.3,N
1504479775.4,286046998.9,N
1504479795.3,286047000.6,N
1504479815.1,286046998.5,N
1504479816.0,286046998.5,N
1504479835.8,286046998.7,N
1504479855.7,286046999.9,N
1504479875.5,286046998.3,N
1504479895.3,286047000.3,N
1504479915.1,286047002.3,N
1504479935.9,286047004.1,N
1504479955.7,286047002.8,N
1504479975.5,286047001.0,N
1504479995.4,286047001.2,N
1504480015.2,286046998.6,N
1504480035.0,286047000.4,N
1504480035.9,286047000.4,N
1504480055.8,286046998.1,N
1504480075.6,286047002.7,N
1504480095.4,286047002.4,N
1504480115.3,286047002.0,N
1504480135.1,286047001.9,N
1504480155.8,286047003.8,N
1504480175.7,286047005.6,N
1504480195.5,286047003.9,N
1504480215.3,286047002.9,N
1504480235.2,286047009.2,P
1504480255.9,286047005.3,N
1504480275.7,286047005.9,N
1504480295.6,286047006.4,N
1504480315.4,286047012.7,P
1504480335.2,286047010.5,N
1504480355.1,286047007.1,N
1504480356.0,286047007.1,N
1504480375.8,286047003.4,N
1504480395.6,286047008.7,N
1504480415.5,286047012.3,P
1504480435.3,286047003.8,N
1504480455.1,286047002.4,N
1504480475.9,286047005.0,N
1504480495.7,286047006.7,N
1504480515.5,286047009.1,N
1504480535.4,286047008.9,N
1504480555.2,286047005.0,N
1504480575.0,286047001.9,N
1504480575.9,286047001.9,N
1504480595.8,286046999.9,N
1504480615.6,286047001.5,N
1504480635.4,286047000.5,N
1504480655.2,286047004.3,N
1504480675.1,286047002.5,N
1504480676.0,286047002.5,N
1504480695.8,286047004.4,N
1504480715.6,286047002.5,N
1504480735.5,286047000.9,N
1504480755.3,286047001.2,N
1504480775.1,286046999.4,N
1504480795.9,286046999.5,N
1504480815.7,286047000.2,N
1504480835.5,286047002.2,N
1504480855.4,286047001.3,N
1504480875.2,286047001.6,N
1504480895.0,286047004.2,N
1504480895.9,286047004.2,N
1504480915.8,286047001.5,N
1504480935.6,286047002.8,N
1504480955.4,286046998.3,N
1504480975.3,286047000.4,N
1504480995.1,286047003.6,N
1504480996.0,286047003.6,N
1504481015.8,286047000.3,N
1504481035.6,286047004.2,N
1504481055.5,286047006.7,P
1504481075.3,286047006.2,N
1504481095.2,286047006.5,P
1504481115.9,286047005.6,N
1504481135.7,286047001.3,N
1504481155.5,286046999.8,N
1504481175.4,286047003.9,N
1504481195.2,286047004.0,N
1504481215.0,286047002.0,N
1504481215.9,286047002.0,N
1504481235.8,286047001.7,N
1504481255.6,286046998.6,N
1504481275.4,286047000.8,N
1504481295.3,286047002.4,N
1504481315.1,286047002.2,N
1504481335.8,286047000.3,N
1504481355.7,286047000.2,N
1504481375.5,286047002.7,N
1504481395.3,286047004.3,N
1504481415.2,286047000.2,N
1504481435.9,286047002.5,N
1504481455.7,286047000.5,N
1504481475.5,286047002.4,N
1504481495.4,286047003.6,N
1504481515.2,286047003.2,N
1504481535.0,286046999.9,N
1504481535.9,286046999.9,N
1504481555.8,286047000.8,N
1504481575.6,286046998.4,N
1504481595.4,286046999.0,N
1504481615.3,286046998.7,N
1504481635.1,286047000.6,N
1504481636.0,286047000.6,N
1504481655.8,286047002.5,N
1504481675.7,286047000.6,N
1504481695.5,286047000.3,N
1504481715.3,286047004.6,N
1504481735.2,286047004.5,N
1504481755.9,286047007.0,P
1504481775.7,286047005.1,N
1504481795.6,286047003.1,N
1504481815.4,286047006.1,N
1504481835.2,286047009.0,P
1504481855.1,286047005.1,N
1504481856.0,286047005.1,N
1504481875.8,286047008.8,P
1504481895.6,286047005.3,P
1504481915.5,286047002.8,N
1504481935.3,286046999.8,N
1504481955.1,286047006.9,N
1504481975.9,286047006.2,N
1504481995.7,286047008.1,N
1504482015.5,286047011.3,P
1504482035.4,286047005.7,N
1504482055.2,286047002.3,N
1504482075.0,286047001.7,N
1504482075.9,286047001.7,N
1504482095.8,286047001.1,N
1504482115.6,286047001.7,N
1504482135.4,286047004.9,N
1504482155.3,286047006.2,N
1504482175.1,286047006.6,N
1504482176.0,286047006.6,N
1504482195.8,286047005.0,N
1504482215.7,286047002.5,N
1504482235.5,286047005.4,N
1504482255.3,286047005.0,N
1504482275.2,286047006.2,N
1504482295.9,286047002.9,N
1504482315.7,286047005.1,N
1504482335.5,286047004.7,N
1504482355.4,286047008.4,P
1504482375.2,286047006.1,P
1504482395.1,286047002.9,N
1504482396.0,286047002.9,N
1504482415.8,286047002.4,N
1504482435.6,286047000.4,N
1504482455.4,286046999.2,N
1504482475.3,286047001.6,N
1504482495.1,286047004.6,N
1504482515.8,286047006.1,N
1504482535.7,286047005.9,N
1504482555.5,286047005.4,N
1504482575.3,286046999.7,N
1504482595.2,286047004.8,N
1504482615.9,286047006.1,N
1504482635.7,286047011.0,P
1504482655.6,286047009.8,N
1504482675.4,286047008.8,N
1504482695.2,286047003.3,N
1504482715.1,286046999.8,N
1504482716.0,286046999.8,N
1504482735.8,286047000.1,N
1504482755.6,286046999.7,N
1504482775.5,286047003.8,N
1504482795.3,286047001.2,N
1504482815.1,286047002.4,N
1504482835.9,286046998.7,N
1504482855.7,286046996.5,N
1504482875.5,286046999.3,N
1504482895.3,286046999.4,N
1504482915.2,286047002.7,N
1504482935.0,286047003.9,N
1504482935.9,286047003.9,N
1504482955.7,286047001.4,N
1504482975.6,286047002.7,N
1504482995.4,286047002.6,N
1504483015.2,286047002.0,N
1504483035.1,286047005.3,N
1504483036.0,286047005.3,N
1504483055.8,286047004.8,N
1504483075.6,286047000.0,N
1504483095.5,286047003.9,N
1504483115.3,286047007.5,N
1504483135.1,286047007.6,N
1504483155.9,286047005.5,N
1504483175.7,286047005.7,N
1504483195.5,286047006.5,N
